FW1332 Weather Reports


Display with metric or nautical units.
time (UTC)temp
F
wind
direction
speed
MPH
gust
MPH
rain 1hr
in
rain 24hr
in
rain mn
in
humidity
%
barometer
mb
20260504034538 59 168 6.0 11.0 0.00 0.02 0.02 62 1003.1
20260504033039 59 216 5.0 9.0 0.00 0.02 0.02 62 1003.2
20260504031537 59 127 5.0 10.0 0.00 0.02 0.02 60 1003.2
20260504030039 60 168 5.0 9.0 0.00 0.02 0.02 60 1003.2
20260504024535 60 162 5.0 8.0 0.00 0.02 0.02 60 1003.1
20260504023035 60 161 4.0 5.0 0.00 0.02 0.02 59 1003.1
20260504021535 61 185 3.0 10.0 0.00 0.02 0.02 57 1003.2
20260504020036 62 152 5.0 9.0 0.00 0.02 0.02 54 1003.0
20260504014548 63 179 4.0 7.0 0.00 0.02 0.02 53 1002.9
20260504013040 63 169 3.0 6.0 0.00 0.02 0.02 52 1002.8
20260504011533 63 174 3.0 6.0 0.00 0.02 0.02 52 1002.8
20260504010032 65 181 3.0 5.0 0.00 0.02 0.02 48 1002.7
20260504004533 65 197 4.0 6.0 0.00 0.02 0.02 47 1002.5
20260504003031 66 196 5.0 8.0 0.00 0.02 0.02 47 1002.5
20260504001533 67 197 6.0 9.0 0.00 0.02 0.02 45 1002.6
20260504000040 68 225 7.0 10.0 0.00 0.02 0.02 43 1002.7
20260503234529 68 203 7.0 15.0 0.00 0.02 0.02 44 1002.6
20260503233029 68 235 11.0 17.0 0.00 0.02 0.02 42 1002.7
20260503231526 68 192 14.0 21.0 0.00 0.02 0.02 41 1002.8
20260503230026 68 237 9.0 18.0 0.00 0.02 0.02 44 1002.9
20260503224528 68 190 10.0 24.0 0.00 0.02 0.02 44 1002.9
20260503223021 68 215 14.0 20.0 0.00 0.02 0.02 44 1003.2
20260503221520 67 202 14.0 21.0 0.00 0.02 0.02 46 1003.2
20260503220021 67 184 14.0 25.0 0.00 0.02 0.02 44 1003.2
20260503214524 67 201 13.0 22.0 0.00 0.02 0.02 44 1003.3
20260503213015 66 224 17.0 28.0 0.00 0.02 0.02 44 1003.5
20260503211513 65 207 13.0 29.0 0.00 0.02 0.02 45 1003.6
20260503210032 65 152 14.0 26.0 0.00 0.02 0.02 45 1003.8
20260503204511 65 190 18.0 32.0 0.00 0.02 0.02 46 1004.1
20260503203013 65 216 18.0 30.0 0.00 0.02 0.02 46 1004.5
20260503201505 64 195 13.0 28.0 0.00 0.02 0.02 49 1004.7
20260503200003 64 203 21.0 32.0 0.00 0.02 0.02 47 1004.9
20260503194501 63 185 14.0 29.0 0.00 0.02 0.02 47 1005.2
20260503193100 63 167 19.0 32.0 0.00 0.02 0.02 45 1005.4
20260503191604 63 208 16.0 29.0 0.00 0.02 0.02 46 1005.6
20260503190059 62 205 16.0 26.0 0.00 0.02 0.02 54 1006.0
20260503184554 60 177 16.0 26.0 0.00 0.02 0.02 59 1006.3
20260503183052 58 181 17.0 28.0 0.00 0.02 0.02 60 1006.7
20260503181545 58 187 17.0 31.0 0.00 0.02 0.02 58 1006.7
20260503180055 58 180 17.0 31.0 0.00 0.02 0.02 56 1006.7
20260503174543 58 143 16.0 31.0 0.00 0.02 0.02 56 1006.8
20260503173117 59 177 13.0 30.0 0.00 0.02 0.02 56 1007.0
20260503171545 58 145 18.0 27.0 0.00 0.02 0.02 56 1007.2
20260503120109 50 183 11.0 20.0 0.00 0.00 0.00 58 1011.3
20260503081550 45 158 5.0 10.0 0.00 0.00 0.00 60 1012.0
20260503071539 45 205 6.0 11.0 0.00 0.00 0.00 59 1012.3
20260503054531 46 189 5.0 10.0 0.00 0.00 0.00 56 1012.8
20260503053019 46 183 6.0 12.0 0.00 0.00 0.00 55 1012.9
20260503051512 46 162 4.0 10.0 0.00 0.00 0.00 55 1013.1
20260503050008 47 174 6.0 11.0 0.00 0.00 0.00 55 1013.1
20260503044514 47 183 6.0 15.0 0.00 0.00 0.00 54 1013.2
20260503043011 47 208 8.0 14.0 0.00 0.00 0.00 53 1013.2
20260503041507 47 191 6.0 14.0 0.00 0.00 0.00 53 1013.5
20260503040008 47 199 6.0 11.0 0.00 0.00 0.00 54 1013.6